Salida, CO

10:55 PM MDT on June 23, 2017 (GMT -0600)
Salida

Weather History for KANK - January, 2013

Change the Weather History Date:

Friday, January 25, 2013

  Actual Average (KGUC) Record (KGUC)
Temperature  
Mean Temperature 39 °F -  
Max Temperature 49 °F 23 °F 39 °F (2003)
Min Temperature 29 °F 0 °F -16 °F (2002)
Degree Days  
Heating Degree Days 26    
Moisture  
Dew Point 27 °F    
Average Humidity 59    
Maximum Humidity 79    
Minimum Humidity 42    
Precipitation  
Precipitation 0.00 in - - ()
Sea Level Pressure  
Sea Level Pressure 30.28 in    
Wind  
Wind Speed 10 mph (SW)    
Max Wind Speed 25 mph    
Max Gust Speed 33 mph    
Visibility 10 miles    
Events      
Averages and records for this station are not official NWS values.
T = Trace of Precipitation, MM = Missing Value Source: NWS Daily Summary

Daily Weather History Graph

Daily Weather History Graph

Search for Another Location

Airport or City:

Trip Planner

Search our weather history database for the weather conditions in past years. The results will help you decide how hot, cold, wet, or windy it might be!

Date:

Astronomy

Jan. 25, 2013 Rise Set
Actual Time 7:14 AM MST 5:18 PM MST
Civil Twilight 6:46 AM MST 5:47 PM MST
Nautical Twilight 6:14 AM MST 6:19 PM MST
Astronomical Twilight 5:43 AM MST 6:50 PM MST
Moon 4:18 PM MST (1/25) 5:56 AM MST (1/25)
Length of Visible Light 11h 00m
Length of Day
10h 03m
Waxing Gibbous, 98% of the Moon is Illuminated
Jan 25
Waxing Gibbous
Jan 26
Full
Feb 3
Last Quarter
Feb 10
New
Feb 17
First Quarter

Hourly Weather History & Observations

Time (MST) Temp. Windchill Dew Point Humidity Pressure Visibility Wind Dir Wind Speed Gust Speed Precip Events Conditions
12:15 AM 41.4 °F 34.3 °F 27.5 °F 58% 30.31 in 10.0 mi WSW 12.7 mph 19.6 mph N/A   Scattered Clouds
12:35 AM 40.8 °F 36.2 °F 27.5 °F 59% 30.30 in 10.0 mi West 6.9 mph - N/A   Scattered Clouds
12:55 AM 36.9 °F 33.1 °F 26.1 °F 65% 30.30 in 10.0 mi NW 4.6 mph - N/A   Clear
1:15 AM 35.4 °F 31.5 °F 25.3 °F 67% 30.31 in 10.0 mi West 4.6 mph - N/A   Clear
1:35 AM 38.5 °F 32.1 °F 27.0 °F 63% 30.30 in 10.0 mi WSW 9.2 mph - N/A   Clear
1:55 AM 40.6 °F 34.3 °F 27.7 °F 60% 30.31 in 10.0 mi WSW 10.4 mph 16.1 mph N/A   Clear
2:15 AM 40.6 °F 36.0 °F 27.5 °F 59% 30.30 in 10.0 mi WSW 6.9 mph - N/A   Clear
2:35 AM 40.8 °F 36.9 °F 27.3 °F 59% 30.30 in 10.0 mi West 5.8 mph - N/A   Clear
2:55 AM 35.4 °F 32.6 °F 26.4 °F 70% 30.30 in 10.0 mi WSW 3.5 mph - N/A   Clear
3:15 AM 38.7 °F 33.6 °F 27.1 °F 63% 30.31 in 10.0 mi WNW 6.9 mph - N/A   Clear
3:35 AM 34.0 °F 29.8 °F 25.3 °F 71% 30.32 in 10.0 mi SE 4.6 mph - N/A   Scattered Clouds
3:55 AM 31.6 °F 26.0 °F 24.4 °F 75% 30.31 in 10.0 mi SSE 5.8 mph - N/A   Scattered Clouds
4:15 AM 34.3 °F - 26.2 °F 72% 30.30 in 10.0 mi Calm Calm - N/A   Clear
4:35 AM 32.9 °F - 25.2 °F 73% 30.30 in 10.0 mi Calm Calm - N/A   Clear
4:55 AM 32.5 °F - 26.1 °F 77% 30.30 in 10.0 mi Calm Calm - N/A   Clear
5:15 AM 32.7 °F 27.3 °F 25.5 °F 75% 30.30 in 10.0 mi NW 5.8 mph - N/A   Clear
5:35 AM 32.2 °F - 24.6 °F 74% 30.30 in 10.0 mi Calm Calm - N/A   Clear
5:55 AM 29.7 °F - 23.5 °F 78% 30.31 in 10.0 mi Calm Calm - N/A   Clear
6:35 AM 30.7 °F - 24.6 °F 78% 30.33 in 10.0 mi Calm Calm - N/A   Scattered Clouds
6:55 AM 30.9 °F - 25.2 °F 79% 30.34 in 10.0 mi Calm Calm - N/A   Scattered Clouds
7:15 AM 31.8 °F 26.2 °F 25.5 °F 78% 30.34 in 10.0 mi North 5.8 mph - N/A   Scattered Clouds
7:35 AM 32.5 °F - 25.7 °F 76% 30.34 in 10.0 mi Calm Calm - N/A   Mostly Cloudy
7:55 AM 32.0 °F 28.7 °F 25.5 °F 77% 30.34 in 10.0 mi NNW 3.5 mph - N/A   Mostly Cloudy
8:15 AM 32.0 °F 26.4 °F 25.3 °F 76% 30.32 in 10.0 mi NNW 5.8 mph - N/A   Mostly Cloudy
8:35 AM 33.4 °F 28.1 °F 25.7 °F 73% 30.32 in 10.0 mi NNW 5.8 mph - N/A   Scattered Clouds
8:55 AM 33.8 °F 27.0 °F 25.7 °F 72% 30.32 in 10.0 mi North 8.1 mph - N/A   Clear
9:15 AM 35.6 °F 29.2 °F 26.2 °F 69% 30.33 in 10.0 mi NNW 8.1 mph - N/A   Clear
9:35 AM 36.7 °F 32.0 °F 26.6 °F 67% 30.34 in 10.0 mi NNW 5.8 mph - N/A   Clear
9:55 AM 38.5 °F 34.1 °F 27.5 °F 65% 30.34 in 10.0 mi NNW 5.8 mph - N/A   Clear
10:15 AM 40.3 °F 38.2 °F 27.5 °F 60% 30.34 in 10.0 mi North 3.5 mph - N/A   Clear
10:35 AM 41.9 °F - 27.7 °F 57% 30.34 in 10.0 mi Calm Calm - N/A   Clear
10:55 AM 46.4 °F 39.8 °F 28.2 °F 49% 30.33 in 10.0 mi South 16.1 mph 20.7 mph N/A   Mostly Cloudy
11:15 AM 47.3 °F - 27.5 °F 46% 30.31 in 10.0 mi SSW 16.1 mph 27.6 mph N/A   Scattered Clouds
11:35 AM 47.1 °F - 27.0 °F 46% 30.29 in 10.0 mi SSW 21.9 mph 27.6 mph N/A   Scattered Clouds
11:55 AM 47.5 °F - 27.0 °F 45% 30.27 in 10.0 mi SSW 17.3 mph 26.5 mph N/A   Scattered Clouds
12:15 PM 48.2 °F - 27.5 °F 45% 30.27 in 10.0 mi SSW 17.3 mph 29.9 mph N/A   Clear
12:35 PM 49.1 °F - 27.7 °F 44% 30.26 in 10.0 mi SSW 19.6 mph 29.9 mph N/A   Clear
12:55 PM 49.3 °F - 27.3 °F 43% 30.25 in 10.0 mi SSW 25.3 mph 32.2 mph N/A   Scattered Clouds
1:15 PM 48.0 °F - 26.2 °F 43% 30.24 in 10.0 mi SSW 19.6 mph 33.4 mph N/A   Scattered Clouds
1:35 PM 49.1 °F - 26.6 °F 42% 30.24 in 10.0 mi SSW 19.6 mph 29.9 mph N/A   Clear
1:55 PM 48.4 °F - 27.3 °F 44% 30.24 in 10.0 mi SSW 19.6 mph 32.2 mph N/A   Scattered Clouds
2:15 PM 47.3 °F - 27.7 °F 47% 30.24 in 10.0 mi SSW 21.9 mph 33.4 mph N/A   Scattered Clouds
2:35 PM 47.5 °F - 27.1 °F 45% 30.24 in 10.0 mi SSW 20.7 mph 29.9 mph N/A   Scattered Clouds
2:55 PM 47.3 °F - 26.8 °F 45% 30.23 in 10.0 mi SSW 19.6 mph 29.9 mph N/A   Scattered Clouds
3:15 PM 47.1 °F - 26.4 °F 45% 30.23 in 10.0 mi SW 18.4 mph 27.6 mph N/A   Mostly Cloudy
3:35 PM 46.8 °F - 27.0 °F 46% 30.23 in 10.0 mi SSW 18.4 mph 26.5 mph N/A   Overcast
3:55 PM 47.1 °F - 27.3 °F 46% 30.23 in 10.0 mi SSW 20.7 mph 24.2 mph N/A   Scattered Clouds
4:15 PM 46.2 °F 39.8 °F 26.8 °F 47% 30.23 in 10.0 mi SSW 15.0 mph 25.3 mph N/A   Scattered Clouds
4:35 PM 45.1 °F 38.8 °F 27.1 °F 49% 30.23 in 10.0 mi SSW 13.8 mph 24.2 mph N/A   Clear
4:55 PM 44.8 °F 37.1 °F 28.2 °F 52% 30.23 in 10.0 mi SSW 18.4 mph 23.0 mph N/A   Clear
5:15 PM 44.6 °F 37.4 °F 29.3 °F 55% 30.22 in 10.0 mi SSW 16.1 mph 24.2 mph N/A   Clear
5:35 PM 44.2 °F 37.0 °F 30.0 °F 57% 30.23 in 10.0 mi SSW 16.1 mph 26.5 mph N/A   Clear
5:55 PM 44.2 °F 36.7 °F 30.2 °F 58% 30.22 in 10.0 mi SSW 17.3 mph 28.8 mph N/A   Scattered Clouds
6:15 PM 44.1 °F 37.1 °F 30.7 °F 59% 30.23 in 10.0 mi SSW 15.0 mph 25.3 mph N/A   Mostly Cloudy
6:35 PM 44.1 °F 37.1 °F 30.7 °F 59% 30.23 in 10.0 mi SW 15.0 mph 20.7 mph N/A   Scattered Clouds
6:55 PM 44.6 °F 38.8 °F 30.6 °F 58% 30.23 in 10.0 mi SW 11.5 mph 20.7 mph N/A   Mostly Cloudy
7:15 PM 44.8 °F 37.7 °F 31.1 °F 59% 30.24 in 10.0 mi SSW 16.1 mph 24.2 mph N/A   Overcast
7:35 PM 44.6 °F 38.1 °F 30.7 °F 58% 30.24 in 10.0 mi SSW 13.8 mph 24.2 mph N/A   Overcast
7:55 PM 44.6 °F 37.8 °F 29.1 °F 55% 30.24 in 10.0 mi SSW 15.0 mph - N/A   Overcast
8:15 PM 43.5 °F 36.7 °F 28.2 °F 55% 30.24 in 10.0 mi SSW 13.8 mph 19.6 mph N/A   Scattered Clouds
8:35 PM 43.5 °F 36.1 °F 28.4 °F 55% 30.23 in 10.0 mi SSW 16.1 mph 21.9 mph N/A   Clear
8:55 PM 42.8 °F 34.3 °F 27.5 °F 55% 30.24 in 10.0 mi SSW 19.6 mph 23.0 mph N/A   Clear
9:15 PM 42.6 °F 34.6 °F 27.5 °F 55% 30.25 in 10.0 mi SSW 17.3 mph 25.3 mph N/A   Scattered Clouds
9:35 PM 42.6 °F 35.6 °F 27.5 °F 55% 30.25 in 10.0 mi SSW 13.8 mph 19.6 mph N/A   Scattered Clouds
9:55 PM 43.3 °F 35.8 °F 27.3 °F 53% 30.25 in 10.0 mi SSW 16.1 mph 24.2 mph N/A   Mostly Cloudy
10:15 PM 42.4 °F 34.1 °F 26.4 °F 53% 30.24 in 10.0 mi South 18.4 mph 23.0 mph N/A   Scattered Clouds
10:35 PM 42.1 °F 33.9 °F 25.9 °F 53% 30.24 in 10.0 mi SSW 17.3 mph 20.7 mph N/A   Clear
10:55 PM 41.9 °F 34.0 °F 26.1 °F 53% 30.23 in 10.0 mi SSW 16.1 mph 23.0 mph N/A   Clear
11:15 PM 42.1 °F 34.5 °F 25.7 °F 52% 30.23 in 10.0 mi SSW 15.0 mph 20.7 mph N/A   Clear
11:35 PM 41.9 °F 33.4 °F 26.1 °F 53% 30.22 in 10.0 mi South 18.4 mph 23.0 mph N/A   Clear
11:55 PM 41.5 °F 33.2 °F 26.2 °F 55% 30.22 in 10.0 mi South 17.3 mph 25.3 mph N/A   Clear